Location: Cande�n
(42.2459°N, 8.6590°W)
Time: 09:35:46
(UTC+00:00)

Daily predictions for brighter satellites

Satellite Brightness Start Highest point End
(mag) Time Altitude Azimuth Time Altitude Azimuth Time Altitude Azimuth
Cosmos 2034 Rocket 4.4 20:26:15 10° NNW 20:32:22 67° W 20:38:26 10° S
Resurs 01 Rocket 2.4 20:29:31 10° SE 20:33:36 37° ENE 20:37:42 10° N
STARLINK-1200 3.9 20:30:03 10° WSW 20:34:10 73° NW 20:38:19 10° NE
STARLINK-1077 4.4 20:31:22 10° WNW 20:35:20 46° SW 20:39:17 10° SSE
Okean 2 Rocket 3.9 20:31:39 10° N 20:35:40 33° ENE 20:39:39 10° SE
STARLINK-1078 4.3 20:33:37 10° NW 20:37:39 48° NNE 20:41:40 10° ESE
STARLINK-1192 4.1 20:35:03 10° WSW 20:39:10 68° NW 20:43:18 10° NE
STARLINK-1108 4.2 20:38:36 10° NW 20:42:39 52° NNE 20:46:42 10° ESE
Cosmos 371 Rocket 3.5 20:38:20 10° S 20:43:01 52° ESE 20:47:45 10° NNE
Ariane Rocket 4.1 20:38:13 10° S 20:43:04 45° W 20:47:57 10° NNW
SL-4 R/B 4.2 20:43:02 10° SE 20:43:55 10° ESE 20:44:49 10° ESE
SPOT 3 Rocket 3.6 20:38:49 10° SSE 20:43:57 78° ENE 20:49:08 10° N
STARLINK-1244 4.2 20:40:03 10° WSW 20:44:09 62° NNW 20:48:16 10° NE
Cosmos 1954 Rocket 4.1 20:39:13 10° NNW 20:44:31 81° ENE 20:49:49 10° SSE
STARLINK-1071 4.1 20:43:33 10° NW 20:47:38 56° NNE 20:51:43 10° ESE
Abrixas rocket 3.7 20:45:16 10° NW 20:47:53 28° N 20:50:29 10° ENE
STARLINK-1138 4.4 20:45:04 10° WSW 20:49:08 58° NNW 20:53:15 10° NE
Okean 1-7 4.1 20:45:53 10° SSW 20:50:00 47° WNW 20:54:08 10° N
Cosmos 2151 Rocket 4.5 20:46:17 10° N 20:50:25 34° ENE 20:54:33 10° SE
STARLINK-1110 4.0 20:47:20 10° NW 20:51:26 59° NNE 20:55:31 10° ESE
H-2A R/B 3.8 20:48:31 10° SSW 20:52:58 31° W 20:57:34 10° NNW
CZ-2C R/B 4.0 20:52:46 10° N 20:57:16 74° WNW 21:01:49 10° SSW
STARLINK-1124 3.8 20:53:30 10° NW 20:57:38 65° NE 21:01:29 12° ESE
Resurs 1-3 3.7 20:53:29 10° SSE 20:57:53 83° WSW 21:02:18 10° NNW
Cosmos 676 Rocket 4.3 20:57:12 10° NNW 21:02:26 69° WSW 21:07:40 10° S
STARLINK-1122 3.7 20:58:28 10° NW 21:02:37 71° NE 21:06:15 13° ESE
Aureole 2 Rocket 3.1 21:00:11 10° SSE 21:02:56 28° ESE 21:05:34 10° NE
Cosmos 1300 Rocket 3.7 21:00:55 10° N 21:05:20 62° E 21:09:36 11° SSE
Meteor 1-4 Rocket 4.1 21:03:48 10° SW 21:07:01 36° WNW 21:10:15 10° N
STARLINK-1126 3.7 21:03:28 10° NW 21:07:38 77° NE 21:11:06 14° ESE
Cosmos 1634 Rocket 4.2 21:01:21 10° N 21:07:41 81° W 21:14:00 10° S
Cosmos 1437 Rocket 3.1 21:04:34 10° SSE 21:08:09 42° E 21:11:46 10° NNE
STARLINK-1082 3.6 21:08:24 10° NW 21:12:33 83° NE 21:15:48 16° SE
Cosmos 304 Rocket 4.0 21:09:51 10° S 21:14:26 48° ESE 21:19:03 10° NNE
ISS -3.7 21:11:21 10° WNW 21:14:43 75° SW 21:17:02 19° SE
NOSS 8 (E) 4.4 21:12:24 10° SW 21:15:47 75° NW 21:18:50 10° NNE
STARLINK-1100 3.6 21:13:21 10° NW 21:17:31 90° N 21:20:34 18° SE
Lacrosse 5 2.0 21:13:07 10° NW 21:18:10 72° SW 21:22:07 16° SE
NOSS 2-2 (D) 3.6 21:15:42 10° S 21:18:59 35° ESE 21:22:25 10° NE
STARLINK-1083 3.6 21:18:22 10° NW 21:22:31 83° SW 21:25:23 19° SE
Cosmos 1674 Rocket 3.7 21:19:11 11° S 21:23:18 55° E 21:27:37 10° NNE
CZ-2C R/B 3.8 21:20:10 10° N 21:25:32 48° WNW 21:30:54 10° SW
Cosmos 1378 Rocket 3.9 21:22:49 15° SSE 21:26:12 45° E 21:30:24 10° NNE
STARLINK-1125 3.6 21:23:21 10° NW 21:27:30 76° SW 21:30:10 21° SE
Meteor 2-4 Rocket 4.4 21:23:17 10° SSW 21:28:30 53° WNW 21:33:45 10° N
STARLINK-1109 3.7 21:28:21 10° WNW 21:32:28 70° SW 21:34:57 23° SE
IGS 5A 3.6 21:31:56 20° SSE 21:34:38 61° ENE 21:38:45 10° N
Cosmos 2297 3.6 21:29:29 10° SSW 21:35:08 74° ESE 21:40:51 10° NNE
Cosmos 1943 Rocket 2.9 21:31:46 17° SSE 21:35:12 32° ESE 21:40:06 10° NE
NOSS 2-2 (E) 2.9 21:32:39 10° SSW 21:36:11 75° ESE 21:40:02 10° NE
Cosmos 1833 Rocket 3.7 21:31:21 10° NW 21:36:35 42° WSW 21:41:49 10° S
STARLINK-1091 3.8 21:33:18 10° WNW 21:37:24 63° SW 21:39:42 25° SSE
Cosmos 332 Rocket 4.3 21:33:58 10° SSW 21:38:49 63° WNW 21:43:42 10° NNE
Landsat 7 3.8 21:36:41 20° SSE 21:39:59 72° ENE 21:44:45 10° N
Cosmos 1452 Rocket 4.5 21:35:07 10° SW 21:40:14 50° WNW 21:45:24 10° N
STARLINK-1072 3.9 21:38:20 10° WNW 21:42:24 57° SW 21:44:31 26° SSE
Cosmos 1461 3.6 21:39:10 10° SW 21:43:13 57° NW 21:47:30 10° NNE
Cosmos 2082 Rocket 2.6 21:37:53 10° NNW 21:43:32 62° WSW 21:47:54 17° S
Cosmos 1975 Rocket 4.3 21:44:36 22° ESE 21:45:51 25° E 21:49:28 10° NE
Meteor 1-23 Rocket 4.2 21:41:04 11° S 21:46:38 77° E 21:52:18 10° NNE
SAR-Lupe-2 3.5 21:43:04 10° NNE 21:46:41 88° WNW 21:49:29 16° SSW
STARLINK-1096 4.0 21:43:20 10° WNW 21:47:21 52° SW 21:49:17 27° SSE
STARLINK-1104 4.5 21:45:38 10° NW 21:49:37 44° NNE 21:52:18 19° E
SL-4 R/B 3.7 21:47:59 10° WNW 21:49:40 14° WSW 21:51:16 10° SW
ASTRO E2 4.5 21:48:34 10° SW 21:50:31 16° SSW 21:50:31 16° SSW
Cosmos 2369 Rocket 3.0 21:49:04 23° SE 21:51:22 32° ESE 21:56:18 10° NE
STARLINK-1079 4.1 21:48:20 10° WNW 21:52:19 47° SW 21:54:04 28° SSE
STARLINK-1144 4.4 21:50:36 10° NW 21:54:37 47° NNE 21:57:05 21° E
SPOT 5 3.4 21:53:31 25° SE 21:56:24 55° ENE 22:01:37 10° N
STARLINK-1116 4.3 21:53:21 10° WNW 21:57:17 43° SW 21:58:52 29° S
STARLINK-1103 4.2 21:55:33 10° NW 21:59:36 50° NNE 22:01:51 24° E
NOSS 2-2 (C) 3.2 21:57:16 10° SW 22:00:48 75° NW 22:04:38 10° NNE
EXPRESS MD2 4.2 21:59:03 10° W 22:02:09 54° NNW 22:07:58 10° ENE
ERS-1 Rocket 3.0 21:59:40 28° SSE 22:02:21 72° ENE 22:07:24 10° N
Okean 2 3.9 22:02:00 34° SE 22:03:06 41° E 22:07:01 10° NNE
ATLAS 2AS CENTAUR R/B 3.7 22:00:30 23° SSE 22:04:10 33° ESE 22:11:04 10° NE
STARLINK-1101 4.1 22:00:31 10° NW 22:04:36 54° NNE 22:06:38 27° E
BREEZE M DEB (TANK) 3.6 21:59:15 10° WSW 22:04:57 49° NNW 22:07:23 10° NE
USA 245 3.7 22:05:34 26° SSW 22:06:40 37° WSW 22:09:10 10° NNW
Cosmos 1066 Rocket 4.3 22:04:20 11° SSW 22:09:28 71° W 22:14:49 10° N
STARLINK-1102 4.0 22:05:30 10° NW 22:09:36 58° NNE 22:11:26 30° E
NOSS 3-2 (A) 4.3 22:02:11 10° NNW 22:09:39 61° NE 22:15:10 23° ESE
Resurs 01 Rocket 3.8 22:06:48 10° SW 22:10:11 21° W 22:13:35 10° NW
GPS 2-04 Rocket1 4.0 22:08:06 10° WSW 22:10:11 22° SSW 22:10:11 22° SSW
Cosmos 1805 3.2 22:07:21 10° N 22:11:17 68° E 22:12:24 43° SSE
Okean 1 Rocket 3.2 22:08:28 10° NNW 22:12:55 69° W 22:15:06 29° S
STARLINK-1111 3.9 22:10:27 10° NW 22:14:34 63° NNE 22:16:12 34° ESE
Nadezhda 4 Rocket 4.2 22:12:59 13° SSW 22:18:28 71° W 22:24:36 10° N
Cosmos 1455 Rocket 3.8 22:14:27 10° N 22:18:29 37° ENE 22:19:25 33° ESE
ATLAS 5 CENTAUR R/B 3.9 22:11:43 10° SSW 22:21:46 13° ENE 22:22:08 10° ENE
STARLINK-1073 3.8 22:15:26 10° NW 22:19:34 69° NE 22:21:00 38° ESE
USA 238 DEB 4.0 22:14:20 10° NNW 22:21:33 68° NE 22:25:51 27° SE
USA 238 4.0 22:14:26 10° NNW 22:21:39 67° NE 22:25:58 27° SE
SL-8 R/B 3.7 22:17:11 10° WNW 22:22:01 78° NNE 22:24:13 32° ESE
SL-4 R/B 2.3 22:18:09 10° SW 22:22:48 60° SE 22:27:35 10° ENE
Abrixas rocket 2.1 22:20:39 10° WNW 22:23:18 67° W 22:23:18 67° W
STARLINK-1121 3.6 22:20:24 10° NW 22:24:33 75° NE 22:25:46 44° ESE
Cosmos 1842 3.4 22:24:08 50° SE 22:24:36 54° E 22:28:25 10° NNE
Terra 1.8 22:23:15 39° SSE 22:24:57 72° ENE 22:29:43 10° N
CARTOSAT-1 3.7 22:24:56 37° S 22:26:32 68° WSW 22:30:52 10° NNW
SPOT 1/Viking Rocket 4.2 22:25:55 23° SSW 22:28:50 48° W 22:33:50 10° NNW
STARLINK-1106 3.6 22:25:24 10° NW 22:29:33 81° NE 22:30:34 50° ESE
STARLINK-1112 3.5 22:30:20 10° NW 22:34:30 88° NE 22:35:19 57° ESE
STARLINK-1128 3.5 22:35:19 10° NW 22:39:28 86° SW 22:40:06 63° SE
Cosmos 2263 4.2 22:39:18 40° SSE 22:41:06 58° ESE 22:46:36 10° NNE
SWAS 4.4 22:38:06 10° NNW 22:42:26 86° ENE 22:43:12 60° SSE
Cosmos 1733 3.2 22:40:15 10° NNW 22:44:03 71° W 22:44:30 62° SW
STARLINK-1113 3.4 22:40:18 10° NW 22:44:27 79° SW 22:44:53 68° SSE
Cosmos 1271 Rocket 3.2 22:49:29 45° ENE 22:49:29 45° ENE 22:52:55 10° NNE
Cosmos 1242 Rocket 2.6 22:49:25 69° ENE 22:49:25 69° ENE 22:52:55 10° NNE
STARLINK-1119 3.5 22:45:19 10° WNW 22:49:27 72° SW 22:49:41 69° S
STARLINK-60 3.8 22:52:21 47° NNE 22:52:21 47° NNE 22:54:51 10° NE
MTI 4.2 22:48:38 10° N 22:51:36 57° WNW 22:51:36 57° WNW
Meteor 1-21 4.1 22:50:09 42° S 22:52:07 78° E 22:57:44 10° NNE
JB-3 4.2 22:48:00 10° NNE 22:52:10 76° ESE 22:52:30 70° SSE
COSMOS 2455 3.4 22:52:50 35° ESE 22:53:13 36° ESE 22:58:38 10° NE
Cosmos 1302 Rocket 4.4 22:50:23 21° SW 22:53:55 61° WNW 22:59:10 10° NNE
STARLINK-1114 3.6 22:50:17 10° WNW 22:54:23 65° SW 22:54:27 65° SW
Cosmos 1544 Rocket 3.5 22:51:00 10° N 22:55:20 67° E 22:55:47 62° ESE
Cosmos 1486 Rocket 4.0 22:51:54 10° NNW 22:57:13 77° ENE 22:58:32 51° SE
Cosmos 1707 3.3 22:59:44 44° ENE 22:59:44 44° ENE 23:03:01 10° NNE
STARLINK-1130 (DARKSAT) 3.7 22:55:17 10° WNW 22:59:14 59° SW 22:59:14 59° SW
Lacrosse 5 4.2 22:59:02 10° WSW 23:00:18 11° WSW 23:01:19 10° SW
SL-27 R/B 2.7 22:59:47 10° NNW 23:03:01 63° WNW 23:03:01 63° WNW
STARLINK-1084 3.9 23:00:17 10° WNW 23:04:01 52° WSW 23:04:01 52° WSW
ATLAS 3B CENTAUR R/B 3.9 22:56:30 10° WSW 23:05:09 27° SSW 23:05:09 27° SSW
Cosmos 1726 3.6 23:04:30 10° NNE 23:07:20 27° ENE 23:07:20 27° ENE
ALOS 2 4.2 23:07:47 22° E 23:08:26 23° ENE 23:11:53 10° NNE
STARLINK-1098 4.2 23:05:18 10° WNW 23:08:48 46° WSW 23:08:48 46° WSW
COSMOS 2487 4.3 23:08:03 10° N 23:10:32 22° NE 23:10:32 22° NE
CENTAUR R/B 3.2 23:05:51 10° NW 23:14:03 81° NE 23:18:17 35° SE
STARLINK-1123 4.4 23:10:17 10° WNW 23:13:34 40° WSW 23:13:34 40° WSW
ATLAS 3B R/B 3.5 23:10:38 10° NNW 23:17:06 44° NE 23:21:09 23° ESE
Cosmos 1867 4.0 23:11:46 10° NNW 23:17:08 54° NE 23:18:45 40° ESE
Cosmos 1992 Rocket 3.9 23:16:14 57° SSW 23:17:19 86° ESE 23:22:33 10° NNE
Cosmos 1943 Rocket 3.5 23:13:43 10° SW 23:18:50 37° WNW 23:24:01 10° N
NOSS 3-2 (C) 4.0 23:11:46 10° NW 23:19:28 86° WSW 23:23:02 40° SSE
EO 1 Del DPAF 3.4 23:16:10 10° NNE 23:19:29 65° NNE 23:19:29 65° NNE
SeaSat 1 2.3 23:18:51 10° NNE 23:23:49 74° ESE 23:24:20 66° SSE
NOSS 3-4 (A) 3.3 23:23:53 36° SW 23:26:28 88° NW 23:32:46 10° NE
NOSS 3-4 (C) 3.3 23:24:02 37° SW 23:26:34 89° NW 23:32:53 10° NE
RESURS DK-1 4.3 23:29:49 20° ENE 23:29:49 20° ENE 23:31:36 10° NE
BREEZE-M R/B 4.4 23:22:28 10° SW 23:32:31 48° SE 23:37:18 10° ENE
Meteor 2-10 3.8 23:29:09 10° N 23:34:12 80° E 23:34:44 70° SE
Cosmos 2369 Rocket 3.4 23:30:46 14° WSW 23:35:16 39° WNW 23:40:32 10° N
ATLAS CENTAUR R/B 1.4 23:35:42 80° N 23:35:42 80° N 23:39:41 10° NNE
Cosmos 1340 Rocket 3.2 23:34:29 10° N 23:38:06 59° NE 23:38:06 59° NE
Cosmos 1025 Rocket 3.4 23:39:50 53° W 23:40:03 54° W 23:44:17 10° N
S3M 3.9 23:35:08 10° N 23:41:20 82° W 23:42:52 54° S
STARLINK-1228 4.5 23:42:06 10° NW 23:44:35 40° NNW 23:44:35 40° NNW
Thor Agena Rocket 4.0 23:41:07 10° N 23:46:17 57° WNW 23:47:47 42° SW
Cosmos 1953 2.6 23:42:55 10° N 23:46:22 64° NNW 23:46:22 64° NNW
Cosmos 1470 4.1 23:44:04 10° NNW 23:47:12 31° W 23:47:12 31° W
Cosmos 1656 Rocket 4.1 23:46:09 36° SW 23:48:18 58° WNW 23:53:50 10° NNE
Meteor 2-19 Rocket 4.3 23:47:40 56° S 23:49:04 89° E 23:55:14 10° N
Nimbus 7 Rocket 4.3 23:46:41 10° NNE 23:52:47 81° ESE 23:54:03 58° S
Cosmos 2292 Rocket 4.0 23:56:49 47° N 23:56:49 47° N 23:59:12 10° N
